WZZ904P EPKT-EHBK

Flight info

Callsign WZZ904P
Flight time 1h 29m
Altitude 36000
Route ADADO DCT UTEVO DCT OKG DCT KOMIB DCT LOHRE DCT BOMBI DCT IDOVI/N0414F280 Z104 ODVUX/N0391F240 Z104 GESLO N852 LNO
Aircraft A321/M-SDE1E2E3FGIJ1J4RWXY/LB1

Departure

Time 2026-05-05 11:39
Airport Katowice Wojciech Korfanty International Airport (EPKT)

Arrival

Time 2026-05-05 13:08
Airport Maastricht Aachen Airport (EHBK)
Time Latitude Longitude Altitude Speed Heading
2026-05-05 11:08 50.47186 19.07149 998 ft 0 kts 180°
2026-05-05 11:24 50.47192 19.07149 998 ft 4 kts 180°
2026-05-05 11:24 50.47214 19.07149 998 ft 4 kts 177°
2026-05-05 11:24 50.47233 19.07138 998 ft 4 kts 107°
2026-05-05 11:24 50.47235 19.07100 998 ft 4 kts 90°
2026-05-05 11:25 50.47235 19.07085 998 ft 0 kts 90°
2026-05-05 11:28 50.47235 19.07098 998 ft 3 kts 90°
2026-05-05 11:28 50.47235 19.07143 998 ft 5 kts 90°
2026-05-05 11:28 50.47235 19.07215 1001 ft 8 kts 90°
2026-05-05 11:29 50.47235 19.07309 1001 ft 10 kts 90°
2026-05-05 11:29 50.47234 19.07424 1001 ft 11 kts 90°
2026-05-05 11:29 50.47234 19.07559 1003 ft 13 kts 90°
2026-05-05 11:29 50.47234 19.07648 1003 ft 3 kts 90°
2026-05-05 11:30 50.47234 19.07684 1003 ft 2 kts 90°
2026-05-05 11:30 50.47234 19.07721 999 ft 4 kts 90°
2026-05-05 11:30 50.47234 19.07753 1000 ft 2 kts 90°
2026-05-05 11:30 50.47234 19.07784 1003 ft 4 kts 90°
2026-05-05 11:31 50.47234 19.07811 1003 ft 2 kts 90°
2026-05-05 11:31 50.47234 19.07830 1000 ft 2 kts 90°
2026-05-05 11:31 50.47234 19.07852 1003 ft 2 kts 90°
2026-05-05 11:31 50.47234 19.07868 1001 ft 0 kts 90°
2026-05-05 11:32 50.47234 19.07888 1003 ft 3 kts 90°
2026-05-05 11:32 50.47233 19.07939 1003 ft 6 kts 90°
2026-05-05 11:32 50.47233 19.08015 1000 ft 8 kts 90°
2026-05-05 11:33 50.47233 19.08114 1003 ft 10 kts 90°
2026-05-05 11:33 50.47233 19.08233 1003 ft 12 kts 90°
2026-05-05 11:33 50.47232 19.08372 1002 ft 14 kts 90°
2026-05-05 11:33 50.47232 19.08529 1004 ft 15 kts 90°
2026-05-05 11:34 50.47231 19.08702 1004 ft 17 kts 90°
2026-05-05 11:34 50.47231 19.08891 1004 ft 18 kts 90°
2026-05-05 11:34 50.47231 19.09093 1004 ft 19 kts 90°
2026-05-05 11:34 50.47230 19.09305 1004 ft 20 kts 90°
2026-05-05 11:35 50.47230 19.09529 1004 ft 21 kts 90°
2026-05-05 11:35 50.47229 19.09763 1003 ft 22 kts 90°
2026-05-05 11:35 50.47229 19.09973 1000 ft 18 kts 85°
2026-05-05 11:35 50.47294 19.10140 998 ft 19 kts 52°
2026-05-05 11:36 50.47376 19.10305 1002 ft 20 kts 52°
2026-05-05 11:36 50.47461 19.10441 999 ft 15 kts 17°
2026-05-05 11:36 50.47566 19.10444 1001 ft 10 kts 351°
2026-05-05 11:36 50.47594 19.10370 999 ft 9 kts 271°
2026-05-05 11:37 50.47594 19.10357 1000 ft 0 kts 271°
2026-05-05 11:38 50.47595 19.10047 1001 ft 65 kts 270°
2026-05-05 11:38 50.47597 19.08983 1001 ft 128 kts 270°
2026-05-05 11:38 50.47599 19.07307 1014 ft 175 kts 267°
2026-05-05 11:39 50.47611 19.05444 1732 ft 167 kts 265°
2026-05-05 11:39 50.47616 19.03607 2365 ft 171 kts 263°
2026-05-05 11:39 50.47606 19.01633 2669 ft 192 kts 263°
2026-05-05 11:39 50.47601 18.99416 2955 ft 214 kts 266°
2026-05-05 11:40 50.47603 18.96946 3160 ft 240 kts 266°
2026-05-05 11:40 50.47604 18.94206 3547 ft 260 kts 266°
2026-05-05 11:40 50.47592 18.91335 4254 ft 264 kts 264°
2026-05-05 11:40 50.47560 18.88481 5036 ft 266 kts 264°
2026-05-05 11:41 50.47499 18.85579 5849 ft 265 kts 257°
2026-05-05 11:41 50.47058 18.82818 6674 ft 259 kts 249°
2026-05-05 11:41 50.46533 18.80110 7486 ft 260 kts 249°
2026-05-05 11:41 50.46008 18.77390 8281 ft 261 kts 249°
2026-05-05 11:42 50.45476 18.74641 8998 ft 265 kts 250°
2026-05-05 11:42 50.44938 18.71855 9747 ft 269 kts 250°
2026-05-05 11:42 50.44389 18.69008 10189 ft 282 kts 250°
2026-05-05 11:42 50.43794 18.65944 10339 ft 305 kts 250°
2026-05-05 11:43 50.43161 18.62671 10600 ft 320 kts 251°
2026-05-05 11:43 50.42511 18.59306 11152 ft 325 kts 250°
2026-05-05 11:43 50.41847 18.55899 11762 ft 328 kts 251°
2026-05-05 11:43 50.41182 18.52453 12357 ft 332 kts 251°
2026-05-05 11:44 50.40504 18.48972 12951 ft 335 kts 250°
2026-05-05 11:44 50.39820 18.45459 13551 ft 339 kts 250°
2026-05-05 11:44 50.39127 18.41909 14089 ft 342 kts 250°
2026-05-05 11:44 50.38429 18.38324 14625 ft 345 kts 251°
2026-05-05 11:45 50.37727 18.34716 15193 ft 348 kts 251°
2026-05-05 11:45 50.37015 18.31076 15733 ft 351 kts 251°
2026-05-05 11:45 50.36292 18.27408 16291 ft 354 kts 251°
2026-05-05 11:45 50.35562 18.23714 16827 ft 357 kts 251°
2026-05-05 11:46 50.34822 18.19979 17378 ft 361 kts 250°
2026-05-05 11:46 50.34073 18.16216 17921 ft 364 kts 251°
2026-05-05 11:46 50.33324 18.12415 18436 ft 367 kts 251°
2026-05-05 11:46 50.32572 18.08586 18911 ft 370 kts 251°
2026-05-05 11:47 50.31804 18.04726 19383 ft 373 kts 251°
2026-05-05 11:47 50.31021 18.00843 19884 ft 375 kts 251°
2026-05-05 11:47 50.30238 17.96938 20393 ft 377 kts 251°
2026-05-05 11:47 50.29453 17.93007 20875 ft 380 kts 251°
2026-05-05 11:48 50.27862 17.85048 21795 ft 386 kts 251°
2026-05-05 11:48 50.27055 17.81025 22270 ft 389 kts 251°
2026-05-05 11:48 50.26241 17.76993 22747 ft 391 kts 251°
2026-05-05 11:49 50.25415 17.72922 23175 ft 394 kts 252°
2026-05-05 11:49 50.24584 17.68814 23514 ft 398 kts 252°
2026-05-05 11:49 50.23741 17.64680 23873 ft 401 kts 252°
2026-05-05 11:49 50.22895 17.60534 24252 ft 402 kts 252°
2026-05-05 11:50 50.22043 17.56365 24612 ft 404 kts 252°
2026-05-05 11:50 50.21295 17.52186 24908 ft 407 kts 258°
2026-05-05 11:50 50.20970 17.47797 25286 ft 409 kts 267°
2026-05-05 11:50 50.20934 17.43350 25651 ft 410 kts 268°
2026-05-05 11:51 50.20909 17.38891 25984 ft 412 kts 268°
2026-05-05 11:51 50.20873 17.34403 26279 ft 415 kts 268°
2026-05-05 11:51 50.20835 17.29889 26618 ft 416 kts 268°
2026-05-05 11:51 50.20794 17.25364 26959 ft 417 kts 267°
2026-05-05 11:52 50.20760 17.20833 27301 ft 419 kts 268°
2026-05-05 11:52 50.20727 17.16271 27577 ft 422 kts 268°
2026-05-05 11:52 50.20685 17.11676 27823 ft 425 kts 268°
2026-05-05 11:52 50.20631 17.07060 28132 ft 426 kts 268°
2026-05-05 11:53 50.20578 17.02437 28440 ft 427 kts 267°
2026-05-05 11:53 50.20528 16.97797 28704 ft 429 kts 268°
2026-05-05 11:53 50.20482 16.93135 28951 ft 431 kts 268°
2026-05-05 11:53 50.20429 16.88450 29205 ft 432 kts 268°
2026-05-05 11:54 50.20372 16.83745 29470 ft 434 kts 267°
2026-05-05 11:54 50.20311 16.79035 29746 ft 435 kts 268°
2026-05-05 11:54 50.20249 16.74299 29967 ft 437 kts 268°
2026-05-05 11:54 50.20187 16.69546 30132 ft 440 kts 268°
2026-05-05 11:55 50.20117 16.64758 30330 ft 442 kts 268°
2026-05-05 11:55 50.20050 16.59967 30596 ft 441 kts 268°
2026-05-05 11:55 50.19981 16.55193 30890 ft 440 kts 268°
2026-05-05 11:55 50.19914 16.50429 31189 ft 439 kts 268°
2026-05-05 11:56 50.19839 16.45670 31494 ft 437 kts 268°
2026-05-05 11:56 50.19764 16.40932 31802 ft 436 kts 268°
2026-05-05 11:56 50.19688 16.36213 32125 ft 434 kts 268°
2026-05-05 11:56 50.19611 16.31507 32447 ft 433 kts 268°
2026-05-05 11:57 50.19544 16.26827 32769 ft 431 kts 268°
2026-05-05 11:57 50.19492 16.23737 32995 ft 429 kts 268°
2026-05-05 11:57 50.19407 16.19101 33354 ft 426 kts 268°
2026-05-05 11:57 50.19289 16.13001 33776 ft 424 kts 267°
2026-05-05 11:58 50.19196 16.08415 34034 ft 422 kts 267°
2026-05-05 11:58 50.19114 16.03845 34273 ft 421 kts 267°
2026-05-05 11:58 50.19031 15.99280 34484 ft 421 kts 267°
2026-05-05 11:58 50.18942 15.94720 34686 ft 420 kts 267°
2026-05-05 11:59 50.18882 15.91637 34824 ft 420 kts 267°
2026-05-05 11:59 50.18788 15.87142 35018 ft 420 kts 267°
2026-05-05 11:59 50.18700 15.82589 35212 ft 420 kts 267°
2026-05-05 11:59 50.18607 15.78036 35398 ft 419 kts 267°
2026-05-05 12:00 50.18504 15.73496 35586 ft 419 kts 267°
2026-05-05 12:00 50.18404 15.68951 35763 ft 419 kts 267°
2026-05-05 12:00 50.18199 15.59878 35833 ft 418 kts 267°
2026-05-05 12:01 50.17991 15.50823 35829 ft 418 kts 266°
2026-05-05 12:01 50.17772 15.41762 35820 ft 417 kts 266°
2026-05-05 12:02 50.17551 15.32737 35821 ft 416 kts 266°
2026-05-05 12:02 50.17314 15.23715 35836 ft 416 kts 266°
2026-05-05 12:03 50.17080 15.14698 35838 ft 416 kts 266°
2026-05-05 12:03 50.16839 15.05687 35836 ft 416 kts 266°
2026-05-05 12:04 50.16582 14.96687 35840 ft 415 kts 266°
2026-05-05 12:04 50.16327 14.87743 35845 ft 415 kts 266°
2026-05-05 12:05 50.16068 14.78743 35860 ft 415 kts 265°
2026-05-05 12:05 50.15793 14.69749 35861 ft 415 kts 265°
2026-05-05 12:06 50.15518 14.60768 35861 ft 415 kts 265°
2026-05-05 12:06 50.15233 14.51793 35858 ft 414 kts 265°
2026-05-05 12:07 50.14943 14.42822 35829 ft 414 kts 265°
2026-05-05 12:07 50.14641 14.33858 35855 ft 414 kts 265°
2026-05-05 12:08 50.14340 14.24893 35863 ft 414 kts 265°
2026-05-05 12:08 50.14023 14.15939 35860 ft 414 kts 265°
2026-05-05 12:09 50.13696 14.06991 35854 ft 413 kts 265°
2026-05-05 12:09 50.13386 13.98048 35836 ft 413 kts 265°
2026-05-05 12:10 50.13049 13.89106 35833 ft 413 kts 265°
2026-05-05 12:10 50.12712 13.80235 35843 ft 413 kts 264°
2026-05-05 12:11 50.12371 13.71312 35840 ft 412 kts 264°
2026-05-05 12:11 50.12015 13.62402 35838 ft 412 kts 264°
2026-05-05 12:12 50.11659 13.53500 35836 ft 412 kts 264°
2026-05-05 12:12 50.11294 13.44600 35837 ft 411 kts 264°
2026-05-05 12:13 50.10920 13.35711 35835 ft 411 kts 264°
2026-05-05 12:13 50.10542 13.26820 35820 ft 411 kts 264°
2026-05-05 12:14 50.10155 13.17920 35820 ft 412 kts 264°
2026-05-05 12:14 50.09763 13.09018 35839 ft 412 kts 264°
2026-05-05 12:15 50.09367 13.00100 35846 ft 413 kts 264°
2026-05-05 12:15 50.08956 12.91190 35846 ft 413 kts 264°
2026-05-05 12:16 50.08533 12.82265 35850 ft 414 kts 263°
2026-05-05 12:16 50.08114 12.73327 35832 ft 414 kts 264°
2026-05-05 12:17 50.07699 12.64439 35832 ft 415 kts 263°
2026-05-05 12:17 50.07256 12.55487 35835 ft 415 kts 263°
2026-05-05 12:18 50.06812 12.46527 35837 ft 415 kts 263°
2026-05-05 12:18 50.06542 12.37552 35839 ft 417 kts 268°
2026-05-05 12:19 50.06672 12.28526 35829 ft 417 kts 269°
2026-05-05 12:19 50.06783 12.19501 35838 ft 417 kts 268°
2026-05-05 12:20 50.06878 12.10474 35852 ft 417 kts 268°
2026-05-05 12:20 50.06958 12.01444 35855 ft 417 kts 268°
2026-05-05 12:21 50.07042 11.92418 35877 ft 417 kts 268°
2026-05-05 12:21 50.07121 11.83400 35866 ft 416 kts 268°
2026-05-05 12:22 50.07196 11.74391 35869 ft 416 kts 267°
2026-05-05 12:22 50.07264 11.65381 35863 ft 416 kts 267°
2026-05-05 12:23 50.07323 11.56447 35851 ft 415 kts 267°
2026-05-05 12:23 50.07363 11.47452 35849 ft 416 kts 267°
2026-05-05 12:24 50.07399 11.38444 35845 ft 416 kts 266°
2026-05-05 12:24 50.07443 11.29422 35841 ft 417 kts 266°
2026-05-05 12:25 50.07465 11.20400 35842 ft 417 kts 266°
2026-05-05 12:25 50.07492 11.11365 35844 ft 417 kts 266°
2026-05-05 12:26 50.07503 11.02337 35839 ft 417 kts 266°
2026-05-05 12:26 50.07509 10.93300 35849 ft 418 kts 266°
2026-05-05 12:27 50.07514 10.84253 35847 ft 418 kts 266°
2026-05-05 12:27 50.07505 10.75198 35846 ft 418 kts 266°
2026-05-05 12:28 50.07488 10.66147 35844 ft 418 kts 266°
2026-05-05 12:28 50.07477 10.57090 35846 ft 418 kts 266°
2026-05-05 12:29 50.07444 10.48033 35857 ft 418 kts 265°
2026-05-05 12:29 50.07404 10.38978 35854 ft 419 kts 265°
2026-05-05 12:30 50.07370 10.29916 35850 ft 419 kts 265°
2026-05-05 12:30 50.07312 10.20917 35855 ft 419 kts 265°
2026-05-05 12:31 50.07261 10.11853 35854 ft 418 kts 265°
2026-05-05 12:31 50.07201 10.02797 35862 ft 419 kts 265°
2026-05-05 12:32 50.07136 9.93727 35856 ft 419 kts 265°
2026-05-05 12:32 50.07067 9.84658 35856 ft 419 kts 265°
2026-05-05 12:33 50.06991 9.75587 35854 ft 419 kts 265°
2026-05-05 12:33 50.06893 9.66513 35857 ft 419 kts 264°
2026-05-05 12:34 50.06794 9.57438 35871 ft 419 kts 264°
2026-05-05 12:34 50.06695 9.48358 35862 ft 420 kts 264°
2026-05-05 12:35 50.06579 9.39265 35854 ft 420 kts 264°
2026-05-05 12:35 50.06458 9.30170 35855 ft 421 kts 264°
2026-05-05 12:36 50.06334 9.21066 35857 ft 421 kts 264°
2026-05-05 12:36 50.06194 9.11970 35858 ft 421 kts 264°
2026-05-05 12:37 50.06052 9.02859 35844 ft 422 kts 264°
2026-05-05 12:37 50.05901 8.93734 35839 ft 422 kts 263°
2026-05-05 12:38 50.05739 8.84587 35838 ft 423 kts 263°
2026-05-05 12:38 50.05727 8.75480 35841 ft 426 kts 267°
2026-05-05 12:39 50.05945 8.66272 35847 ft 426 kts 267°
2026-05-05 12:39 50.06126 8.57061 35847 ft 426 kts 266°
2026-05-05 12:40 50.06296 8.47855 35849 ft 426 kts 266°
2026-05-05 12:40 50.06445 8.38643 35873 ft 426 kts 266°
2026-05-05 12:41 50.06602 8.29427 35872 ft 426 kts 266°
2026-05-05 12:41 50.06752 8.20208 35881 ft 426 kts 266°
2026-05-05 12:42 50.06889 8.10973 35861 ft 427 kts 266°
2026-05-05 12:42 50.07014 8.01717 35853 ft 428 kts 266°
2026-05-05 12:43 50.07147 7.92513 35787 ft 427 kts 266°
2026-05-05 12:43 50.07209 7.87890 35053 ft 429 kts 265°
2026-05-05 12:43 50.07265 7.83192 33968 ft 439 kts 265°
2026-05-05 12:44 50.07321 7.78467 33419 ft 432 kts 265°
2026-05-05 12:44 50.07383 7.73833 32943 ft 426 kts 265°
2026-05-05 12:44 50.07439 7.69258 32416 ft 420 kts 265°
2026-05-05 12:44 50.07486 7.64740 31909 ft 415 kts 265°
2026-05-05 12:45 50.07531 7.60276 31401 ft 411 kts 265°
2026-05-05 12:45 50.07572 7.55847 30896 ft 407 kts 265°
2026-05-05 12:45 50.07614 7.51471 30406 ft 403 kts 265°
2026-05-05 12:45 50.07653 7.47121 29915 ft 400 kts 265°
2026-05-05 12:46 50.07691 7.42815 29377 ft 396 kts 265°
2026-05-05 12:46 50.07726 7.38550 28907 ft 392 kts 265°
2026-05-05 12:46 50.07758 7.34327 28425 ft 388 kts 266°
2026-05-05 12:46 50.07796 7.30147 27963 ft 385 kts 266°
2026-05-05 12:47 50.07909 7.25985 27532 ft 386 kts 270°
2026-05-05 12:47 50.08107 7.21797 27116 ft 389 kts 270°
2026-05-05 12:47 50.08297 7.17596 26706 ft 388 kts 270°
2026-05-05 12:47 50.08479 7.13406 26304 ft 387 kts 270°
2026-05-05 12:48 50.08658 7.09233 25897 ft 386 kts 270°
2026-05-05 12:48 50.08829 7.05077 25498 ft 384 kts 270°
2026-05-05 12:48 50.08994 7.00939 25090 ft 382 kts 270°
2026-05-05 12:48 50.09164 6.96810 24692 ft 381 kts 270°
2026-05-05 12:49 50.09331 6.92701 24305 ft 380 kts 270°
2026-05-05 12:49 50.09493 6.88606 23915 ft 378 kts 269°
2026-05-05 12:49 50.09473 6.84535 23491 ft 375 kts 265°
2026-05-05 12:49 50.09384 6.80491 22981 ft 373 kts 265°
2026-05-05 12:50 50.09295 6.76474 22566 ft 370 kts 265°
2026-05-05 12:50 50.09211 6.72482 22123 ft 367 kts 265°
2026-05-05 12:50 50.09134 6.68522 21693 ft 365 kts 265°
2026-05-05 12:50 50.09051 6.64585 21257 ft 362 kts 265°
2026-05-05 12:51 50.08970 6.60738 20846 ft 359 kts 265°
2026-05-05 12:51 50.08888 6.56861 20424 ft 357 kts 265°
2026-05-05 12:51 50.08803 6.53014 19998 ft 354 kts 265°
2026-05-05 12:51 50.08715 6.49193 19583 ft 352 kts 265°
2026-05-05 12:52 50.08630 6.45396 19155 ft 349 kts 265°
2026-05-05 12:52 50.08551 6.41630 18759 ft 347 kts 266°
2026-05-05 12:52 50.08466 6.37894 18371 ft 344 kts 265°
2026-05-05 12:52 50.08405 6.35439 18091 ft 342 kts 265°
2026-05-05 12:53 50.08314 6.31750 17643 ft 340 kts 265°
2026-05-05 12:53 50.08224 6.28088 17256 ft 338 kts 265°
2026-05-05 12:53 50.08133 6.24442 16858 ft 336 kts 265°
2026-05-05 12:53 50.08044 6.20817 16486 ft 335 kts 265°
2026-05-05 12:54 50.07867 6.13615 15694 ft 331 kts 265°
2026-05-05 12:54 50.07813 6.10040 15302 ft 330 kts 268°
2026-05-05 12:54 50.07974 6.06481 14906 ft 330 kts 280°
2026-05-05 12:55 50.08749 6.03117 14528 ft 332 kts 297°
2026-05-05 12:55 50.10136 6.00260 14139 ft 332 kts 316°
2026-05-05 12:55 50.12016 5.98200 13753 ft 331 kts 334°
2026-05-05 12:55 50.14154 5.96872 13334 ft 330 kts 340°
2026-05-05 12:56 50.16307 5.95650 12940 ft 328 kts 339°
2026-05-05 12:56 50.18437 5.94428 12552 ft 325 kts 339°
2026-05-05 12:56 50.20555 5.93208 12171 ft 323 kts 339°
2026-05-05 12:56 50.22661 5.91998 11784 ft 322 kts 339°
2026-05-05 12:57 50.24754 5.90790 11410 ft 320 kts 339°
2026-05-05 12:57 50.26834 5.89582 11037 ft 318 kts 339°
2026-05-05 12:57 50.28899 5.88384 10666 ft 316 kts 339°
2026-05-05 12:57 50.30952 5.87185 10303 ft 315 kts 339°
2026-05-05 12:58 50.33002 5.85989 9934 ft 313 kts 339°
2026-05-05 12:58 50.34998 5.84831 9639 ft 306 kts 339°
2026-05-05 12:58 50.36972 5.83679 9287 ft 301 kts 339°
2026-05-05 12:58 50.38921 5.82538 8884 ft 298 kts 339°
2026-05-05 12:59 50.40858 5.81406 8480 ft 296 kts 339°
2026-05-05 12:59 50.42777 5.80284 8136 ft 293 kts 339°
2026-05-05 12:59 50.44678 5.79182 7792 ft 289 kts 339°
2026-05-05 13:00 50.48423 5.76998 7120 ft 285 kts 339°
2026-05-05 13:00 50.50280 5.75908 6787 ft 284 kts 339°
2026-05-05 13:01 50.55789 5.72680 5771 ft 278 kts 339°
2026-05-05 13:01 50.57615 5.71738 5449 ft 275 kts 348°
2026-05-05 13:01 50.59515 5.71537 5129 ft 274 kts
2026-05-05 13:01 50.61382 5.72095 4810 ft 273 kts 14°
2026-05-05 13:02 50.63215 5.72834 4485 ft 271 kts 15°
2026-05-05 13:02 50.65031 5.73574 4170 ft 269 kts 15°
2026-05-05 13:02 50.66837 5.74305 3853 ft 267 kts 15°
2026-05-05 13:02 50.68628 5.75017 3540 ft 264 kts 14°
2026-05-05 13:03 50.70402 5.75720 3226 ft 262 kts 15°
2026-05-05 13:03 50.72159 5.76425 2998 ft 259 kts 15°
2026-05-05 13:03 50.73880 5.77113 2992 ft 248 kts 14°
2026-05-05 13:03 50.75496 5.77742 2993 ft 231 kts 11°
2026-05-05 13:04 50.77030 5.77752 3007 ft 215 kts 349°
2026-05-05 13:04 50.78402 5.76884 2724 ft 214 kts 327°
2026-05-05 13:04 50.79581 5.75464 2383 ft 213 kts 323°
2026-05-05 13:04 50.80743 5.74006 2069 ft 214 kts 324°
2026-05-05 13:05 50.81911 5.72557 1842 ft 210 kts 324°
2026-05-05 13:05 50.83006 5.71206 1820 ft 188 kts 327°
2026-05-05 13:05 50.84132 5.70540 1719 ft 165 kts
2026-05-05 13:05 50.85168 5.70981 1576 ft 147 kts 28°
2026-05-05 13:06 50.86018 5.71799 1389 ft 139 kts 32°
2026-05-05 13:06 50.86821 5.72608 1191 ft 136 kts 32°
2026-05-05 13:06 50.87621 5.73414 1008 ft 136 kts 31°
2026-05-05 13:06 50.88419 5.74220 825 ft 136 kts 31°
2026-05-05 13:07 50.89215 5.75021 652 ft 135 kts 30°
2026-05-05 13:07 50.89996 5.75819 465 ft 135 kts 31°
2026-05-05 13:07 50.90757 5.76588 385 ft 114 kts 32°
2026-05-05 13:07 50.91282 5.77117 383 ft 57 kts 32°
2026-05-05 13:08 50.91394 5.77225 384 ft 8 kts 13°
2026-05-05 13:08 50.91439 5.77165 384 ft 10 kts 303°
2026-05-05 13:08 50.91479 5.77066 384 ft 7 kts 304°
2026-05-05 13:08 50.91485 5.77052 384 ft 0 kts 304°
2026-05-05 13:09 50.91485 5.77050 384 ft 1 kts 303°
2026-05-05 13:09 50.91486 5.77025 384 ft 3 kts 264°
2026-05-05 13:09 50.91470 5.76994 384 ft 4 kts 210°
2026-05-05 13:10 50.91433 5.76958 384 ft 8 kts 213°
2026-05-05 13:10 50.91380 5.76904 383 ft 10 kts 211°
2026-05-05 13:10 50.91321 5.76845 384 ft 3 kts 214°
2026-05-05 13:10 50.91300 5.76816 383 ft 2 kts 245°
2026-05-05 13:11 50.91307 5.76806 383 ft 1 kts 324°
2026-05-05 13:11 50.91315 5.76808 384 ft 2 kts
2026-05-05 13:11 50.91342 5.76807 384 ft 5 kts 350°
2026-05-05 13:11 50.91361 5.76801 384 ft 1 kts 348°
2026-05-05 13:12 50.91369 5.76799 384 ft 1 kts 348°
2026-05-05 13:12 50.91370 5.76798 384 ft 0 kts 348°